This demonstration page uses our WeatherBlox Daily Observations layout. Learn more.

Left ArrowRight Arrow

47.50024, -111.30081

Hourly Observations for March 7, 2017

Temp ( °F °C ) Dew Point ( °F °C ) Humidity (%) Winds ( mph kmh ) Pressure ( in mb ) Visibility ( mi km ) Precip ( " mm )
12:53 am 00:53 Clear 24 -4.4 16 -8.9 71 71 SW 15 24 29.83 1010 10 16 0.00 0.00
1:53 am 01:53 Partly Cloudy 25 -3.9 16 -8.9 69 69 WSW 16 26 29.84 1011 10 16 0.00 0.00
2:53 am 02:53 Mostly Clear 23 -5 14 -10 68 68 WSW 14 22 29.88 1012 10 16 0.00 0.00
3:53 am 03:53 Mostly Clear 22 -5.6 15 -9.4 75 75 SW 12 19 29.91 1013 10 16 0.00 0.00
4:53 am 04:53 Clear 23 -5 12 -11.1 63 63 WSW 15 24 29.94 1014 10 16 0.00 0.00
5:53 am 05:53 Clear 24 -4.4 11 -11.7 57 57 WSW 21 33 29.97 1015 10 16 0.00 0.00
6:53 am 06:53 Clear 23 -5 11 -11.7 60 60 WSW 18 30 30.00 1016 10 16 0.00 0.00
7:53 am 07:53 Sunny 24 -4.4 13 -10.6 62 62 SW 13 20 30.03 1017 10 16 0.00 0.00
8:53 am 08:53 Sunny 30 -1.1 12 -11.1 47 47 WSW 17 28 30.04 1017 10 16 0.00 0.00
9:53 am 09:53 Sunny 33 0.6 9 -12.8 36 36 W 20 31 30.04 1017 10 16 0.00 0.00
10:53 am 10:53 Mostly Sunny 34 1.1 7 -13.9 32 32 W 30 48 30.05 1018 10 16 0.00 0.00
11:53 am 11:53 Cloudy 34 1.1 7 -13.9 32 32 NW 24 39 30.08 1019 10 16 0.00 0.00
12:53 pm 12:53 Cloudy 33 0.6 6 -14.4 32 32 WNW 24 39 30.09 1019 10 16 0.00 0.00
1:53 pm 13:53 Mostly Cloudy 33 0.6 7 -13.9 33 33 WNW 18 30 30.10 1019 10 16 0.00 0.00
2:53 pm 14:53 Cloudy 37 2.8 6 -14.4 27 27 W 23 37 30.10 1019 10 16 0.00 0.00
3:53 pm 15:53 Mostly Cloudy 37 2.8 6 -14.4 27 27 W 17 28 30.11 1020 10 16 0.00 0.00
4:53 pm 16:53 Mostly Sunny 36 2.2 6 -14.4 28 28 WNW 14 22 30.11 1020 10 16 0.00 0.00
5:53 pm 17:53 Mostly Cloudy 31 -0.6 14 -10 49 49 NE 9 15 30.11 1020 10 16 0.00 0.00
6:53 pm 18:53 Cloudy 29 -1.7 14 -10 54 54 E 12 19 30.14 1021 10 16 0.00 0.00
7:53 pm 19:53 Cloudy 28 -2.2 15 -9.4 58 58 E 13 20 30.13 1020 10 16 0.00 0.00
8:53 pm 20:53 Cloudy 27 -2.8 16 -8.9 63 63 ENE 12 19 30.09 1019 10 16 0.00 0.00
9:53 pm 21:53 Cloudy 27 -2.8 15 -9.4 61 61 ENE 8 13 30.06 1018 10 16 0.00 0.00
10:41 pm 22:41 Cloudy with Light Snow 26 -3.3 21 -6.1 81 81 E 15 24 30.09 1019 2 3 0.00 0.03
10:53 pm 22:53 Cloudy with Light Snow 25 -3.9 21 -6.1 85 85 E 13 20 30.03 1017 2 3 0.00 0.03
11:00 pm 23:00 Cloudy with Light Snow 25 -4 21 -6 86 86 E 16 26 30.09 1019 2 2 0.00 0.00
11:21 pm 23:21 Cloudy with Light Snow 25 -3.9 22 -5.6 88 88 E 15 24 30.06 1018 2 2 0.01 0.25
11:32 pm 23:32 Cloudy with Light Snow 25 -4 21 -6 86 86 E 13 20 30.06 1018 2 2 0.00 0.00
11:53 pm 23:53 Cloudy with Light Snow 25 -3.9 22 -5.6 88 88 E 16 26 30.00 1016 2 2 0.01 0.25

Powered by AerisWeather